TimeEST,TemperatureF,Dew PointF,Humidity,Sea Level PressureIn,VisibilityMPH,Wind Direction,Wind SpeedMPH,Gust SpeedMPH,PrecipitationIn,Events,Conditions,WindDirDegrees,DateUTC
12:56 AM,41.0,30.0,65,30.07,10.0,North,10.4,-,N/A,,Overcast,350,2014-02-03 05:56:00
1:56 AM,39.0,30.9,73,30.07,10.0,North,6.9,-,0.01,,Overcast,360,2014-02-03 06:56:00
2:56 AM,37.0,30.9,79,30.08,8.0,North,9.2,-,0.02,Rain,Light Rain,360,2014-02-03 07:56:00
3:56 AM,35.1,30.0,82,30.10,7.0,North,5.8,-,0.04,Rain,Light Rain,360,2014-02-03 08:56:00
4:56 AM,34.0,30.0,85,30.12,8.0,North,11.5,-,0.04,Rain,Light Rain,350,2014-02-03 09:56:00
5:14 AM,33.8,28.4,81,30.12,2.0,North,9.2,-,0.01,Snow,Light Snow,360,2014-02-03 10:14:00
5:25 AM,33.8,30.2,87,30.11,2.0,North,8.1,-,0.02,Snow,Light Snow,10,2014-02-03 10:25:00
5:32 AM,33.8,30.2,87,30.10,1.8,North,9.2,-,0.03,Snow,Light Snow,10,2014-02-03 10:32:00
5:41 AM,33.8,30.2,87,30.10,2.5,North,8.1,-,0.03,Snow,Light Snow,10,2014-02-03 10:41:00
5:56 AM,33.1,30.0,89,30.11,2.5,North,8.1,-,0.04,Snow,Light Snow,10,2014-02-03 10:56:00
6:30 AM,33.8,30.2,87,30.10,1.2,NNE,9.2,-,0.03,Snow,Light Snow,20,2014-02-03 11:30:00
6:56 AM,33.1,30.0,89,30.12,1.2,North,8.1,-,0.05,Snow,Light Snow,10,2014-02-03 11:56:00
6:59 AM,33.8,30.2,87,30.12,0.5,North,9.2,-,0.01,Fog-Snow,Snow,10,2014-02-03 11:59:00
7:56 AM,33.1,30.0,89,30.13,0.5,NNE,10.4,-,0.08,Fog-Snow,Snow,20,2014-02-03 12:56:00
8:52 AM,33.8,30.2,87,30.13,0.2,NNE,10.4,-,0.08,Fog-Snow,Snow,20,2014-02-03 13:52:00
8:56 AM,33.1,30.0,89,30.13,0.5,NNE,9.2,-,0.09,Fog-Snow,Snow,20,2014-02-03 13:56:00
9:56 AM,33.1,30.0,89,30.14,0.2,North,10.4,-,0.10,Fog-Snow,Snow,10,2014-02-03 14:56:00
10:56 AM,33.1,30.9,92,30.14,0.2,NNE,9.2,-,0.10,Fog-Snow,Snow,30,2014-02-03 15:56:00
11:56 AM,33.1,30.9,92,30.09,0.2,NNE,10.4,-,0.09,Fog-Snow,Snow,30,2014-02-03 16:56:00
12:56 PM,33.1,30.9,92,30.06,0.2,NNE,12.7,-,0.11,Fog-Snow,Snow,30,2014-02-03 17:56:00
1:56 PM,33.1,30.0,89,30.04,1.0,NNE,15.0,-,0.08,Snow,Light Snow,20,2014-02-03 18:56:00
2:56 PM,33.1,30.0,89,30.07,0.5,NNE,13.8,23.0,0.05,Fog-Snow,Snow,20,2014-02-03 19:56:00
3:32 PM,33.8,30.2,87,30.09,1.5,NNE,16.1,-,0.02,Snow,Light Snow,30,2014-02-03 20:32:00
3:56 PM,33.1,28.9,85,30.09,1.5,NNE,13.8,21.9,0.03,Snow,Light Snow,20,2014-02-03 20:56:00
4:56 PM,32.0,28.9,88,30.12,1.2,North,12.7,-,0.02,Snow,Light Snow,10,2014-02-03 21:56:00
5:56 PM,32.0,28.0,85,30.15,1.5,North,12.7,-,0.00,Snow,Light Snow,10,2014-02-03 22:56:00
6:39 PM,32.0,28.4,87,30.17,1.5,North,12.7,-,0.00,Snow,Light Snow,360,2014-02-03 23:39:00
6:56 PM,32.0,28.0,85,30.18,1.5,North,11.5,-,0.00,Snow,Light Snow,350,2014-02-03 23:56:00
7:56 PM,32.0,28.0,85,30.20,9.0,North,9.2,-,0.00,,Overcast,360,2014-02-04 00:56:00
8:56 PM,32.0,28.0,85,30.22,10.0,North,10.4,-,N/A,,Overcast,360,2014-02-04 01:56:00
9:56 PM,32.0,27.0,82,30.25,10.0,North,6.9,-,N/A,,Overcast,350,2014-02-04 02:56:00
10:56 PM,30.9,27.0,85,30.28,10.0,NNW,6.9,-,N/A,,Overcast,340,2014-02-04 03:56:00
11:56 PM,30.9,26.1,82,30.29,10.0,North,5.8,-,N/A,,Mostly Cloudy,350,2014-02-04 04:56:00